Location: Krasnoyarskiy Pitomnik
(51.1333°N, 71.6167°E)
Time: 09:52:02
(UTC+00:00)

Cosmos 1484 Rocket - Pass Details

Date: 22 October 2021
Orbit: 505 x 556 km, 97.5° (Epoch: 06 December)

Event Time Altitude Azimuth Distance (km) Brightness Sun altitude
Rises 23:42:23 0° 13° (NNE) 2,654 6.6 -20.7°
Reaches altitude 10° 23:44:28 10° 14° (NNE) 1,768 5.6 -20.3°
Maximum altitude 23:48:17 87° 102° (ESE) 535 2.7 -19.8°
Enters shadow 23:51:11 17° 193° (SSW) 1,384 4.7 -19.3°
